Activity Log for Nov, 01 2019

Back to Activity Log Search


Incident Time Nature Address
19F134259 00:03:52 129 60XX BRANDONWOOD LN
19F134260 00:04:05 129 50XX STELLHORN RD
19F134262 00:10:04 22RN RUNAWAY 59XX LUNADA DR
19F134261 00:10:57 48 SUSPICIOUS 53XX COLDWATER RD
19F134263 00:11:10 43 DISTURBANCE 15XX GOSHEN AVE
19F134264 00:19:01 911 HANG UP 30XX EUCLID AVE
19F134265 00:34:51 30 TRAFFIC STOP TAYLOR ST & PAUL ST
19F134266 00:39:10 30 TRAFFIC STOP W COLISEUM BLVD & GOSHEN RD
19F134267 00:42:56 15 ASSIST E WASHINGTON BLVD & HANOVER ST
19F134268 00:47:37 40A AUDIBLE 25XX PRINCETON AVE
19F134269 00:47:46 40A AUDIBLE 32XX E COLISEUM BLVD
19F134271 00:55:27 63 CONTACT 21XX CHERI CT
19F134270 00:56:54 30 TRAFFIC STOP BROADWAY & BLUFFTON RD
19F134284 01:29:03 108 FOLLOWUP 57XX COVENTRY LN
19F134272 01:30:33 129 MAYSVILLE RD & KERN VALLEY DR
19F134273 01:30:50 129 BENHAM DR & BENNINGTON DR
19F134274 01:34:03 22RC RECOVERY 59XX LUNADA DR
19F134275 01:38:02 129 66XX ANGELLO CT
19F134276 01:38:32 129 13XX ARDSLEY CT
19F134277 01:39:40 33,34 ST JOE RD & DEAN DR
19F134278 01:39:45 40 ALARM 85XX TEMPLE DR
19F134279 01:44:17 53 ARMED ROB 23XX SHADY BROOK DR
19F134280 01:49:10 48 SUSPICIOUS 66XX GREGORY DR
19F134281 02:08:02 40A AUDIBLE 61XX W JEFFERSON BLVD
19F134283 02:09:33 40 ALARM 14XX MEYER RD
19F134282 02:10:33 911 HANG UP 11XX TULIP TREE RD
19F134285 02:29:07 30 TRAFFIC STOP FAIRFIELD AVE & W CREIGHTON AVE
19F134286 02:29:13 48,36 4XX E COLISEUM BLVD
19F134287 02:33:52 103 UNWANTED 40XX COLDWATER RD
19F134288 02:53:39 40A AUDIBLE 62XX BLUFFTON RD
19F134289 03:11:52 62 PARTY ARMED 28XX TAYLOR ST
19F134290 03:15:16 30 TRAFFIC STOP LIMA RD & PROGRESS RD
19F134291 03:16:20 40A AUDIBLE 34XX MEYER RD
19F134292 03:16:45 46 DOMESTIC 44XX SPATZ AVE
19F134293 03:37:24 96JO 7XX VILLA PARK CT
19F134294 04:10:38 44 NUISANCE 36XX E RUDISILL BLVD
19F134295 04:35:31 40A AUDIBLE 3XX E PETTIT AVE
19F134296 04:36:25 40P PANIC ALARM 93XX ILLINOIS RD
19F134297 04:37:12 40A AUDIBLE 25XX GLENCAIRN DR
19F134299 05:18:35 40A AUDIBLE 32XX ST JOE CENTER RD
19F134298 05:20:30 48,35 19XX N CLINTON ST
19F134300 05:21:38 40A AUDIBLE 103XX DAWSONS CREEK BLVD
19F134301 05:26:18 51JO 28XX E STATE BLVD
19F134302 05:39:17 34 TRAFF HAZARD W JEFFERSON BLVD & LIBERTY MILLS R
19F134304 05:55:50 39 STOLEN VEHIC 48XX DEVONSHIRE DR
19F134303 05:56:32 33,34 CROSS CREEK BLVD & W WASHINGTON CE
19F134305 06:17:07 33,34 8XX I 469 SB
19F134306 06:17:18 33,34 S LAFAYETTE ST & MCKINNIE AVE
19F134307 06:18:42 40A AUDIBLE 15XX APPLE GLEN BLVD
19F134308 06:23:44 911 HANG UP 6XX GREENLAWN AVE
19F134309 06:27:44 70 STRUCTURE 21XX CHARTWELL DR
19F134311 06:33:19 18 WORK TRAFFIC E STATE BLVD & BUSCHE DR
19F134310 06:33:46 18 WORK TRAFFIC VANCE AVE & REED RD
19F134312 06:35:04 40A AUDIBLE 39XX W JEFFERSON BLVD
19F134313 06:37:16 103 UNWANTED 88XX COLDWATER RD
19F134314 06:39:19 96IP 10XX HIGH ST
19F134315 06:44:47 103 UNWANTED 12XX N COLISEUM BLVD
19F134316 06:45:08 40A AUDIBLE 22XX S HANNA ST
19F134318 06:47:17 46 DOMESTIC CLAY ST & E JEFFERSON BLVD
19F134317 06:48:27 40 ALARM 45XX INVESTMENT DR
19F134319 07:00:38 43 DISTURBANCE 9XX E WASHINGTON BLVD
19F134320 07:00:56 40I INTRUSION 41XX HESSEN CASSEL RD
19F134321 07:08:11 911 HANG UP 10XX W COLISEUM BLVD
19F134325 07:11:15 18 WORK TRAFFIC TRIER RD & REED RD
19F134322 07:11:43 43 DISTURBANCE 45XX S COLONIAL AVE
19F134332 07:12:27 18 WORK TRAFFIC W STATE BLVD & TYLER AVE
19F134333 07:13:14 18 WORK TRAFFIC FERNBANK DR & TRIER RD
19F134323 07:15:24 25 PD ACCIDENT S LAFAYETTE ST & E TILLMAN RD
19F134326 07:18:40 26 PI ACCIDENT I 469 AND SR 37
19F134327 07:18:58 39U UNAUTHORIZE 8XX E WASHINGTON BLVD
19F134324 07:19:12 103 UNWANTED 5XX E JEFFERSON BLVD
19F134328 07:24:31 40A AUDIBLE 13XX GETZ RD
19F134329 07:28:02 25 PD ACCIDENT W US 30 & KROEMER RD
19F134331 07:33:22 34 TRAFF HAZARD 96XX ARDMORE AVE
19F134330 07:33:48 14S SERVING WAR 16XX S MAYFIELD DR
19F134334 07:39:46 25 PD ACCIDENT 7XX E COLISEUM BLVD
19F134335 07:44:18 30 TRAFFIC STOP S CALHOUN ST & W RUDISILL BLVD
19F134336 07:46:19 96JO 12XX ELM ST
19F134337 07:50:19 33,34 LIMA RD & W WASHINGTON CENTER RD
19F134338 07:57:14 25 PD ACCIDENT E STATE BLVD & N ANTHONY BLVD
19F134339 07:57:15 33,34 LAKE AVE & N COLISEUM BLVD
19F134340 08:04:11 18 WORK TRAFFIC 86XX COVINGTON RD
19F134345 08:06:13 66 MENTALLY ILL 7XX VILLA PARK CT
19F134356 08:09:29 102,TX THREATS 57XX CHALLENGER PKWY
19F134364 08:09:29 22RN RUNAWAY 73XX CARRINGTON BLVD
19F134341 08:10:27 17 MOTOR CHECK 14XX FAIRFIELD AVE
19F134342 08:12:43 51 THEFT 31XX N CLINTON ST
19F134343 08:16:39 48 SUSPICIOUS 18XX WELLS ST
19F134344 08:19:01 48,36 62XX BLUFFTON RD
19F134346 08:21:47 43 DISTURBANCE 8XX ARCHER AVE
19F134347 08:25:54 111I INJURED BRAEBURN CT & HOMESTEAD RD
19F134348 08:34:49 30 TRAFFIC STOP N WASHINGTON RD & ARDMORE AVE
19F134349 08:35:57 40A AUDIBLE 56XX COLDWATER RD
19F134361 08:36:34 108 FOLLOWUP XX E MAIN ST
19F134355 08:40:45 17 MOTOR CHECK 39XX WALDEN RUN
19F134351 08:40:52 25 PD ACCIDENT E STATE BLVD & N CLINTON ST
19F134350 08:40:57 25 PD ACCIDENT STELLHORN RD & ST JOE RD
19F134352 08:47:20 14 WARRANT 27XX MAUMEE AVE
19F134353 08:53:02 33,34 45XX TRIERWOOD PARK DR
19F134354 08:57:36 33 DISABLED VEH 75XX W JEFFERSON BLVD
19F134359 08:58:36 63 CONTACT 4XX E DEWALD ST
19F134357 09:01:21 108 FOLLOWUP 13XX MAPLE AVE
19F134358 09:02:15 25 PD ACCIDENT 75XX W JEFFERSON BLVD
19F134360 09:05:39 25 PD ACCIDENT S LAFAYETTE ST & E CREIGHTON AVE
19F134362 09:14:26 25HS HIT SKIP 62XX ST JOE RD
19F134363 09:19:57 25 PD ACCIDENT 2XX S CLINTON ST
19F134365 09:28:36 102 THREATS 48XX EXECUTIVE BLVD
19F134366 09:32:00 32A DEATH NOTIF 36XX MCARTHUR DR
19F134367 09:32:41 48,36 COLERICK ST & S HANNA ST
19F134368 09:40:08 25HS HIT SKIP 11XX DODGE AVE
19F134369 09:43:35 25 PD ACCIDENT AIRPORT EXPRESSWAY & LOWER HUNTING
19F134370 09:48:10 911 HANG UP 21XX FILLMORE ST
19F134371 09:48:23 101 OPEN DOOR 20XX BROADWAY
19F134373 09:54:53 40A AUDIBLE 12XX SEDDLEMEYER AVE
19F134374 09:55:05 25 PD ACCIDENT ILLINOIS RD & MAGNAVOX WAY
19F134372 09:55:30 129 24XX OTSEGO DR
19F134375 09:56:19 51 THEFT 51XX STONEHEDGE BLVD
19F134376 09:56:42 14S SERVING WAR 11XX HAMILTON AVE
19F134380 09:56:54 103 UNWANTED 54XX S ANTHONY BLVD
19F134377 09:57:08 22I JUV INVEST 4XX E STATE BLVD
19F134378 09:57:16 22I JUV INVEST 22XX MAPLECREST RD
19F134381 10:03:08 33,34 LIMA RD & W COOK RD
19F134382 10:06:26 129 16XX CASS ST
19F134387 10:08:41 33,34 COLDWATER RD & E DUPONT RD
19F134383 10:10:10 30 TRAFFIC STOP LIMA RD & CHAMBEAU RD
19F134384 10:13:24 103 UNWANTED 43XX COLDWATER RD
19F134385 10:15:04 80 CIVIL INVEST XX E MAIN ST
19F134386 10:15:09 40A AUDIBLE 12XX MAPLE AVE
19F134389 10:18:34 26 PI ACCIDENT 60XX NORTH OAK BLVD
19F134388 10:18:38 51 THEFT 32XX N ANTHONY BLVD
19F134390 10:21:44 40P PANIC ALARM 5XX E WAYNE ST
19F134391 10:23:37 14S SERVING WAR 46XX SPATZ AVE
19F134392 10:25:19 40 ALARM 14XX FISHER ST
19F134393 10:30:35 22I JUV INVEST 63XX ST JOE CENTER RD
19F134394 10:35:09 40H HOLDUP ALRM 33XX N CLINTON ST
19F134400 10:37:40 11C CAGE CAR 70XX COLDWATER RD
19F134395 10:39:51 63 CONTACT 60XX ORCHARD LN
19F134397 10:41:31 25 PD ACCIDENT 54XX COLDWATER RD
19F134396 10:42:03 40A AUDIBLE 44XX STRATHDON DR
19F134398 10:44:23 25 PD ACCIDENT COLDWATER RD & E WASHINGTON CENTER
19F134399 10:48:22 40H HOLDUP ALRM 28XX DREXEL AVE
19F134401 11:00:13 43 DISTURBANCE 41XX BOWSER AVE
19F134402 11:01:22 43 DISTURBANCE 2XX W BERRY ST
19F134403 11:25:51 51JO 3XX E COLISEUM BLVD
19F134404 11:35:40 20 PROBLEM UNK 59XX BUNT DR
19F134405 11:40:25 51 THEFT 21XX BAY SIDE CT
19F134407 11:47:20 17 MOTOR CHECK 43XX ENGLE RIDGE DR
19F134408 11:52:38 33,34 S LAFAYETTE ST & GARY ST
19F134406 11:53:05 48,36 E RUDISILL BLVD & SMITH ST
19F134409 12:00:47 50IP BURG I/P 10XX W WAYNE ST
19F134410 12:11:34 33,34 39XX SOUTH PARK DR
19F134411 12:12:23 38 LOST/STOLEN 28XX SANDPOINT RD
19F134414 12:15:23 17 MOTOR CHECK 17XX N HARRISON ST
19F134418 12:15:41 51 THEFT 42XX W JEFFERSON BLVD
19F134419 12:17:22 102 THREATS XX E MAIN ST
19F134412 12:17:39 43 DISTURBANCE LILLIE ST & E PAULDING RD
19F134413 12:19:52 33,34 E STATE BLVD & N CLINTON ST
19F134416 12:24:22 48,36 8XX HOME AVE
19F134415 12:24:29 25 PD ACCIDENT 21XX VANCE AVE
19F134417 12:26:57 48,35 30XX SANDARAC LN
19F134420 12:36:34 51IP 42XX COLDWATER RD
19F134448 12:37:51 51 THEFT 53XX COLDWATER RD
19F134422 12:40:02 25 PD ACCIDENT 101XX LIMA RD
19F134421 12:42:07 43 DISTURBANCE 118XX COLDWATER RD
19F134424 12:45:02 25HS HIT SKIP ST JOE CENTER RD & REED RD
19F134450 12:47:25 46 DOMESTIC 16XX E WASHINGTON BLVD
19F134429 12:47:26 33,34 S COLISEUM BLVD & NEW HAVEN AVE
19F134423 12:47:46 26 PI ACCIDENT S CLINTON ST & E WASHINGTON BLVD
19F134431 12:49:53 66 MENTALLY ILL 14XX DIRECTORS ROW
19F134425 12:50:08 103 UNWANTED 43XX COLDWATER RD
19F134426 12:53:31 41 MAN DOWN DECATUR RD & E TILLMAN RD
19F134427 12:55:04 40P PANIC ALARM 24XX S HANNA ST
19F134430 12:59:45 25 PD ACCIDENT W COLISEUM BLVD & INDUSTRIAL RD
19F134428 13:00:03 23,35 VAND VEH 53XX DIAL DR
19F134432 13:04:07 25 PD ACCIDENT LIMA RD & W COOK RD
19F134433 13:06:55 26 PI ACCIDENT 19XX W COOK RD
19F134436 13:10:21 40P PANIC ALARM 5XX E TABER ST
19F134434 13:11:08 48 SUSPICIOUS 12XX TAYLOR ST
19F134435 13:11:49 96IP E WAYNE ST & S ANTHONY BLVD
19F134438 13:23:11 25 PD ACCIDENT PEARL ST & EWING ST
19F134437 13:23:17 15 ASSIST 36XX SMITH ST
19F134439 13:31:18 129 72XX ST JOE RD
19F134451 13:36:59 47 REMOVE ITEMS 35XX UTAH DR
19F134440 13:38:56 48 SUSPICIOUS 26XX CORVALIS AVE
19F134441 13:41:51 25 PD ACCIDENT E BERRY ST & S CALHOUN ST
19F134505 13:42:18 16 PICK UP ITEM 42XX COLDWATER RD
19F134442 13:46:03 33,34 307XX I 69 SB
19F134443 13:46:49 25 PD ACCIDENT COLDWATER RD & E COLISEUM BLVD
19F134445 13:51:32 34 TRAFF HAZARD 310XX I 69 SB
19F134444 13:51:52 30 TRAFFIC STOP STELLHORN RD & INNSBRUCK DR
19F134446 13:52:38 51JO 33XX W COLISEUM BLVD
19F134449 13:55:41 96JO 35XX W COLISEUM BLVD
19F134453 13:57:44 18 WORK TRAFFIC REED RD & VANCE AVE
19F134447 13:58:01 14 WARRANT 25XX MINER ST
19F134467 13:58:38 18 WORK TRAFFIC E STATE BLVD & BUSCHE DR
19F134454 14:05:33 48,36 4XX WALLEN HILLS DR
19F134452 14:06:16 48 SUSPICIOUS 49XX OLD MAYSVILLE RD
19F134455 14:07:54 48 SUSPICIOUS 42XX SANDHURST DR
19F134460 14:09:18 11C CAGE CAR 70XX COLDWATER RD
19F134456 14:09:45 1 MEET JESSIE AVE & MELROSE AVE
19F134457 14:11:27 101 OPEN DOOR 14XX SWINNEY AVE
19F134459 14:12:30 25 PD ACCIDENT W STATE BLVD & SHERMAN BLVD
19F134458 14:13:57 89 BOMB THREAT 38XX WINTERS RD
19F134461 14:16:39 30 TRAFFIC STOP CRESCENT AVE & COLUMBIA AVE
19F134463 14:18:02 30 TRAFFIC STOP 70XX ST JOE CENTER RD
19F134464 14:21:35 30 TRAFFIC STOP S LAFAYETTE ST & E WAYNE ST
19F134472 14:22:10 18 WORK TRAFFIC REED RD & TRIER RD
19F134465 14:23:29 30 TRAFFIC STOP BROADWAY & TAYLOR ST
19F134466 14:23:33 37 PARKING VIOL 25XX KENWOOD AVE
19F134475 14:24:27 18 WORK TRAFFIC VANCE AVE & REED RD
19F134476 14:25:10 18 WORK TRAFFIC W PONTIAC ST & FAIRFIELD AVE
19F134474 14:25:45 18 WORK TRAFFIC PEMBERTON DR & FOREST AVE
19F134468 14:26:14 51 THEFT 25XX BROADWAY
19F134470 14:26:14 18 WORK TRAFFIC S ANTHONY BLVD & OXFORD ST
19F134479 14:26:56 18 WORK TRAFFIC ST JOE CENTER RD & PRESTWICK RUN
19F134480 14:27:50 18 WORK TRAFFIC TRIER RD & FERNBANK DR
19F134469 14:28:17 41,36 E WASHINGTON CENTER RD & COLDWATER
19F134473 14:34:12 48 SUSPICIOUS 9XX COLERICK ST
19F134471 14:34:25 48 SUSPICIOUS 6XX AVENUE OF AUTOS
19F134478 14:36:19 50 BURGLARY 34XX CHEVIOT DR
19F134477 14:37:12 26 PI ACCIDENT 99XX MAYSVILLE RD
19F134481 14:41:21 22I JUV INVEST 60XX ORCHARD LN
19F134483 14:43:31 46 DOMESTIC 13XX SPY RUN AVE
19F134482 14:46:54 30 TRAFFIC STOP STELLHORN RD & MAPLECREST RD
19F134484 14:47:30 30 TRAFFIC STOP FAIRFIELD AVE & W CREIGHTON AVE
19F134503 14:48:54 48 SUSPICIOUS 42XX COLDWATER RD
19F134485 14:50:18 15 ASSIST 47XX S HANNA ST
19F134486 14:53:04 96JO 30XX SCHELE AVE
19F134488 14:53:54 43 DISTURBANCE 39XX SOUTH PARK DR
19F134487 14:54:06 48,36 4XX FIDDLERS CV
19F134489 14:56:52 25 PD ACCIDENT TAYLOR ST & BROADWAY
19F134494 15:00:08 102,TX THREATS 6XX GLAZIER AVE
19F134490 15:00:34 97A LOST ITEMS 57XX COVENTRY LN
19F134491 15:02:59 26 PI ACCIDENT 55XX W US 30
19F134492 15:07:01 911 HANG UP 8XX COTTAGE AVE
19F134493 15:08:40 30 TRAFFIC STOP SR 1 & OLD RIDGE DR
19F134495 15:14:31 51 THEFT 3XX E COLISEUM BLVD
19F134496 15:16:30 30 TRAFFIC STOP LIMA RD & W TILL RD
19F134497 15:20:55 30 TRAFFIC STOP 17XX FAIRFIELD AVE
19F134501 15:22:03 46 DOMESTIC 20XX ST JOSEPH BLVD
19F134498 15:23:03 30 TRAFFIC STOP BROADWAY & LAVINA ST
19F134499 15:23:37 40A AUDIBLE 27XX ALEXANDER ST
19F134500 15:26:48 37 PARKING VIOL 52XX S HARRISON ST
19F134502 15:31:03 30 TRAFFIC STOP SENATE AVE & S LAFAYETTE ST
19F134504 15:32:03 25HS HIT SKIP KENWOOD AVE & PARNELL AVE
19F134506 15:35:00 40A AUDIBLE 2XX E WASHINGTON BLVD
19F134508 15:37:07 25 PD ACCIDENT CLAY ST & E JEFFERSON BLVD
19F134509 15:37:52 48 SUSPICIOUS 44XX REED ST
19F134507 15:38:01 30 TRAFFIC STOP 7XX TAYLOR ST
19F134512 15:43:53 35 PARKED VEHIC 4XX FIFTH ST
19F134511 15:45:30 37 PARKING VIOL 3XX ELIZABETH ST
19F134510 15:45:42 46 DOMESTIC 25XX KNIGHTSBRIDGE DR
19F134513 15:46:55 26 PI ACCIDENT 9XX N COLISEUM BLVD
19F134514 15:49:32 62 PARTY ARMED RUNNION AVE & HIGH ST
19F134515 15:53:42 129 9XX TIMBERLAKE TRL
19F134516 15:54:00 25 PD ACCIDENT 57XX COVENTRY LN
19F134517 15:54:44 25 PD ACCIDENT N COLISEUM BLVD & E STATE BLVD
19F134518 15:56:52 47 REMOVE ITEMS 3XX PASADENA DR
19F134519 16:07:01 11C CAGE CAR 53XX COLDWATER RD
19F134521 16:09:22 51 THEFT 41XX LAKE AVE
19F134520 16:09:42 48,36 37XX S BARR ST
19F134522 16:13:21 48 SUSPICIOUS EWING ST & W WASHINGTON BLVD
19F134543 16:13:53 14 WARRANT 9XX E BERRY ST
19F134560 16:20:42 50 BURGLARY 28XX CHESTNUT ST
19F134523 16:25:13 34 TRAFF HAZARD 22XX RANDALLIA DR
19F134525 16:26:47 22I JUV INVEST 42XX HOAGLAND AVE
19F134524 16:26:59 55 FIGHT 25XX SPY RUN AVE
19F134526 16:29:12 65T SUICIDE THR 37XX E WASHINGTON BLVD
19F134527 16:30:51 30 TRAFFIC STOP INWOOD DR & NEVADA AVE
19F134528 16:34:32 33,34 E WASHINGTON CENTER RD & DARTMOUTH
19F134529 16:35:05 30 TRAFFIC STOP COPPER HILL RUN & STONE CREEK RUN
19F134535 16:37:16 33,34 51XX MEIJER DR
19F134532 16:37:30 43 DISTURBANCE XX COUNTRY FOREST DR
19F134530 16:38:47 129 28XX RIDGE VALLEY DR
19F134531 16:39:32 30 TRAFFIC STOP COPPER HILL RUN & TIMBERMILL PL
19F134533 16:40:02 EMS 18XX MARY ST
19F134534 16:43:36 48 SUSPICIOUS LIMA RD & NORTHBROOK BLVD
19F134536 16:44:50 15 ASSIST 14XX GREENE ST
19F134537 16:48:42 30 TRAFFIC STOP COPPER HILL RUN & STONE CREEK RUN
19F134540 16:48:56 51JO 63XX E STATE BLVD
19F134547 16:50:11 33,34 COLDWATER RD & WOODLAND XING
19F134538 16:51:12 30 TRAFFIC STOP W JEFFERSON BLVD & APPLE GLEN BLVD
19F134542 16:51:27 22I JUV INVEST 25XX SOUTHWAYNE AVE
19F134539 16:51:29 30 TRAFFIC STOP W JEFFERSON BLVD & RANDALL RD
19F134544 16:51:29 40A AUDIBLE 19XX ST JOE CENTER RD
19F134541 16:53:34 51 THEFT 77XX SOUTHTOWN XING
19F134545 16:55:43 63 CONTACT 21XX CHERI CT
19F134546 16:56:31 25 PD ACCIDENT 3XX E PAULDING RD
19F134550 17:01:01 40A AUDIBLE 54XX KEYSTONE DR
19F134548 17:01:50 22RC RECOVERY 66XX E STATE BLVD
19F134549 17:03:18 25 PD ACCIDENT 29XX LILLIE ST
19F134551 17:04:47 30 TRAFFIC STOP CARLTON AVE & BROOKLYN AVE
19F134552 17:08:40 15 ASSIST POINSETTE DR & ARCHER AVE
19F134556 17:10:18 24 MISSING PERS 6XX RIDGEMOOR DR
19F134562 17:10:21 25 PD ACCIDENT W SR 14 & S WESTHAMILTON RD
19F134553 17:10:43 30 TRAFFIC STOP COPPER HILL RUN & TIMBERMILL PL
19F134557 17:11:26 11C CAGE CAR 17XX APPLE GLEN BLVD
19F134555 17:12:53 66V MENTAL VIOL 60XX BRANDY CHASE CV
19F134554 17:14:27 HARASSMENT 3XX PENN AVE
19F134558 17:15:27 66 MENTALLY ILL 25XX HOLTON AVE
19F134564 17:18:41 46 DOMESTIC 42XX CHIPPENDALE CT
19F134559 17:19:01 108 FOLLOWUP 13XX GREENE ST
19F134561 17:19:28 25HS HIT SKIP SPRING ST & ST MARYS AVE
19F134563 17:23:15 46 DOMESTIC 114XX TRAILS NORTH DR
19F134565 17:28:43 25 PD ACCIDENT 1XX E PETTIT AVE
19F134566 17:29:31 48 SUSPICIOUS 12XX S COLISEUM BLVD
19F134568 17:30:25 40A AUDIBLE 48XX IVY BROOK DR
19F134567 17:34:42 25 PD ACCIDENT 62XX ST JOE RD
19F134572 17:37:24 50 BURGLARY 28XX S HARRISON ST
19F134569 17:37:37 1 MEET 78XX SHAKER CT
19F134571 17:38:13 46 DOMESTIC 24XX CHARLOTTE AVE
19F134573 17:39:39 51 THEFT 38XX ROBINWOOD DR
19F134570 17:39:46 23JO 8XX HUESTIS AVE
19F134575 17:45:41 33,34 S LAFAYETTE ST & S HANNA ST
19F134574 17:46:33 1 MEET 14XX NORTHLAND BLVD
19F134586 17:47:13 102 THREATS 17XX THIRD ST
19F134576 17:47:38 25 PD ACCIDENT E WALLEN RD & N CLINTON ST
19F134596 17:48:41 22RN RUNAWAY 41XX GALLMEYER CT
19F134577 17:50:07 51JO 2XX E COLISEUM BLVD
19F134578 17:52:37 65T SUICIDE THR 14XX W WASHINGTON CENTER RD
19F134579 17:55:44 14 WARRANT 45XX KENILWORTH ST
19F134580 17:58:23 102 THREATS 8XX HUESTIS AVE
19F134581 18:01:27 30 TRAFFIC STOP WILKIE DR & GETZ RD
19F134583 18:02:35 43 DISTURBANCE 14XX BAXTER ST
19F134582 18:02:37 48 SUSPICIOUS 22XX BROADWAY
19F134584 18:03:39 51JO 14XX N COLISEUM BLVD
19F134585 18:04:50 51 THEFT 88XX STAR PINE WAY
19F134591 18:12:36 43 DISTURBANCE 60XX ST JOE CENTER RD
19F134587 18:14:18 22I JUV INVEST 22XX LOWER HUNTINGTON RD
19F134597 18:15:55 11C CAGE CAR XX E MAIN ST
19F134588 18:16:08 25 PD ACCIDENT 62XX ST JOE RD
19F134589 18:17:34 102 THREATS 8XX GOSHEN AVE
19F134590 18:25:15 11C CAGE CAR 42XX COLDWATER RD
19F134595 18:26:51 39R STOLEN RECO E PETTIT AVE & WINTER ST
19F134592 18:30:59 43 DISTURBANCE 32XX DIPLOMAT DR
19F134593 18:34:01 48,35 94XX BLUFFTON RD
19F134594 18:34:37 65T SUICIDE THR 7XX EWING ST
19F134612 18:44:11 35 PARKED VEHIC W MAIN ST & CHERRY ST
19F134598 18:49:11 25 PD ACCIDENT 43XX COLDWATER RD
19F134599 18:50:36 65A SUICIDE ATT 76XX COLD SPRINGS BLVD
19F134603 18:51:20 25HS HIT SKIP 44XX ILLINOIS RD
19F134601 18:52:37 40A AUDIBLE 50XX RIVIERA CT
19F134600 18:52:38 103 UNWANTED 27XX S COLISEUM BLVD
19F134602 18:55:24 30 TRAFFIC STOP S CLINTON ST & MURRAY ST
19F134604 18:56:11 25HS HIT SKIP MCCORMICK AVE & HOLLY AVE
19F134606 19:04:19 25HS HIT SKIP 7XX E COLISEUM BLVD
19F134605 19:05:34 EMS 47XX HEATHERWIND DR
19F134608 19:07:18 63 CONTACT 21XX BROADWAY
19F134610 19:08:03 96 BATTERY 57XX WILKIE DR
19F134607 19:09:01 22I JUV INVEST 48XX S MONROE ST
19F134609 19:10:50 30 TRAFFIC STOP TRIER RD & DAVEWAY DR
19F134611 19:15:24 46 DOMESTIC 96XX CARINE CV
19F134614 19:18:10 25 PD ACCIDENT 17XX LAKE AVE
19F134613 19:18:12 48 SUSPICIOUS 12XX STOPHLET ST
19F134615 19:21:05 30 TRAFFIC STOP S ANTHONY BLVD & E PETTIT AVE
19F134616 19:21:44 25 PD ACCIDENT ARDMORE AVE & LOWER HUNTINGTON RD
19F134633 19:23:17 EMS 12XX MARION ST
19F134617 19:26:03 101 OPEN DOOR 12XX BARTHOLD ST
19F134620 19:26:53 43 DISTURBANCE 64XX COVINGTON RD
19F134623 19:29:06 39U UNAUTHORIZE 21XX HOAGLAND AVE
19F134618 19:29:47 40A AUDIBLE 35XX FOCUS DR
19F134619 19:35:11 25HS HIT SKIP BROADWAY & NUTTMAN AVE
19F134621 19:37:51 1 MEET 5XX W COLISEUM BLVD
19F134622 19:39:20 25HS HIT SKIP 38XX NOKOMIS RD
19F134624 19:41:09 48,36 53XX COLDWATER RD
19F134630 19:42:02 36 OCCUPIED VEH 76XX SUNDERLAND DR
19F134625 19:43:59 25HS HIT SKIP HUGUENARD RD & W LUDWIG RD
19F134627 19:44:58 51 THEFT 60XX S HANNA ST
19F134626 19:49:24 43 DISTURBANCE 27XX S CALHOUN ST
19F134628 19:59:06 46 DOMESTIC 43XX SOUTHPARK DR
19F134629 20:07:15 25 PD ACCIDENT W JEFFERSON BLVD & ROLLING HILLS P
19F134631 20:14:03 30 TRAFFIC STOP MILDRED AVE & SHERMAN BLVD
19F134632 20:21:27 48,36 39XX HESSEN CASSEL RD
19F134634 20:26:33 30 TRAFFIC STOP WAYNE TRACE & OXFORD ST
19F134650 20:28:23 50 BURGLARY 12XX W FOURTH ST
19F134635 20:28:29 34 TRAFF HAZARD ICE WAY & LIMA RD
19F134639 20:31:39 43 DISTURBANCE 109XX KNOLLTON RUN
19F134636 20:31:46 108 FOLLOWUP 22XX POINT WEST DR
19F134637 20:32:12 25HS HIT SKIP 88XX COLDWATER RD
19F134641 20:34:09 25HS HIT SKIP STELLHORN RD & ROSEVIEW RD
19F134638 20:34:12 30 TRAFFIC STOP W JEFFERSON BLVD & N GLENDALE DR
19F134640 20:35:34 30 TRAFFIC STOP S ANTHONY BLVD & E PETTIT AVE
19F134642 20:41:53 11C CAGE CAR 75XX SOUTHTOWN XING
19F134643 20:43:49 34 TRAFF HAZARD S ANTHONY BLVD & MCKINNIE AVE
19F134644 20:44:24 129 46XX PARKERDALE DR
19F134645 20:47:58 129 42XX THORNGATE DR
19F134646 20:49:09 102,TX THREATS 11XX TRICK AVE
19F134649 21:01:32 63 CONTACT 2XX E FLEMING AVE
19F134647 21:04:57 30 TRAFFIC STOP TRACE CIR & TRACE WAY
19F134648 21:06:34 22I JUV INVEST 28XX SOUTHWAYNE AVE
19F134653 21:08:25 44 NUISANCE 13XX W MAIN ST
19F134651 21:10:24 1 MEET 4XX E RUDISILL BLVD
19F134659 21:10:43 28 DUI COLDWATER RD & E DUPONT RD
19F134652 21:16:22 25 PD ACCIDENT MINER ST & HUESTIS AVE
19F134654 21:20:17 129 17XX GREY BIRCH RD
19F134655 21:20:45 129 18XX WOOD MOOR DR
19F134656 21:22:05 129 78XX MORNING GATE CT
19F134657 21:22:34 129 15XX SYCAMORE HILLS DR
19F134658 21:25:52 46 DOMESTIC 55XX LE STEELE BLVD
19F134660 21:39:46 25 PD ACCIDENT ILLINOIS RD & DELL COVE DR
19F134661 21:41:15 1 MEET 13XX BOONE ST
19F134662 21:50:42 46 DOMESTIC 7XX COLUMBIA AVE
19F134667 21:58:25 22RC RECOVERY 49XX WEBSTER ST
19F134663 22:00:37 30 TRAFFIC STOP CAPITOL AVE & S COLONIAL AVE
19F134664 22:01:59 40A AUDIBLE 11XX S BARR ST
19F134665 22:05:03 30 TRAFFIC STOP N CLINTON ST & MEADOWS PARK WAY
19F134666 22:05:30 40P PANIC ALARM 9XX E BERRY ST
19F134669 22:07:26 25 PD ACCIDENT 63XX ILLINOIS RD
19F134668 22:08:22 15 ASSIST E COLISEUM BLVD & PAUL SHAFFER DR
19F134670 22:10:48 43 DISTURBANCE 20XX S HARRISON ST
19F134671 22:15:35 25HS HIT SKIP 29XX ENGLE RD
19F134675 22:16:30 51JO 14XX N COLISEUM BLVD
19F134672 22:17:15 25 PD ACCIDENT E WASHINGTON CENTER RD & RIVIERA D
19F134673 22:17:26 40A AUDIBLE 39XX FELICIAN ST
19F134674 22:18:25 40A AUDIBLE 33XX S HANNA ST
19F134676 22:22:36 911 HANG UP 33XX W COLISEUM BLVD
19F134677 22:25:28 113 SHOTS FIRED 19XX RIVER RUN TRL
19F134678 22:33:24 30 TRAFFIC STOP 46XX LIMA RD
19F134679 22:36:01 23 VANDALISM 20XX ST JOSEPH BLVD
19F134680 22:36:59 30 TRAFFIC STOP E WALLACE ST & OAKLAWN CT
19F134681 22:39:09 48 SUSPICIOUS 70XX WHITE EAGLE DR
19F134682 22:48:13 48,36 20XX WELLS ST
19F134686 22:49:09 46 DOMESTIC 20XX ST JOSEPH BLVD
19F134683 22:52:46 43 DISTURBANCE 6XX E LEWIS ST
19F134684 22:53:28 43 DISTURBANCE 9XX FULTON ST
19F134685 22:56:08 25 PD ACCIDENT 45XX STANDISH DR
19F134688 22:58:16 25 PD ACCIDENT E DUPONT RD & BRANDYWINE DR
19F134687 22:58:52 66V MENTAL VIOL 14XX SHERMAN BLVD
19F134690 23:00:10 27 RECKLESS DRI W JEFFERSON BLVD & I 69 302 SB ON
19F134689 23:00:11 25,86 77XX N CLINTON ST
19F134691 23:08:17 25 PD ACCIDENT N CLINTON ST & JACOBS CREEK RUN
19F134692 23:14:47 113 SHOTS FIRED 84XX ILLINOIS RD
19F134693 23:19:34 46,96 27XX WOODWARD AVE
19F134699 23:20:10 99 NARCOTICS 46XX COLDWATER RD
19F134694 23:22:10 30 TRAFFIC STOP E PONTIAC ST & S ANTHONY BLVD
19F134696 23:23:47 25 PD ACCIDENT W WASHINGTON BLVD & BROADWAY
19F134695 23:23:48 43 DISTURBANCE 9XX FULTON ST
19F134697 23:33:09 40A AUDIBLE 45XX ILLINOIS RD
19F134698 23:34:53 46,96 CRESCENT AVE & N ANTHONY BLVD
19F134700 23:35:10 25 PD ACCIDENT E COLISEUM BLVD & N ANTHONY BLVD
19F134701 23:40:25 30 TRAFFIC STOP SPY RUN AVE & SPY RUN AVE EXT
19F134702 23:47:20 39JO 10XX SAVILLA AVE
19F134703 23:47:57 46,96 84XX NORWARD LN
19F134704 23:49:54 46,96 84XX NORWARD LN
19F134705 23:53:48 40A AUDIBLE 20XX ALABAMA AVE
19F134706 23:59:35 43 DISTURBANCE 9XX W WASHINGTON BLVD